GFSNE_500_spd_042.txt.gz
Wind_Speed
54 60 60 66 69 69 66 69 70 72 66 68 75 79 82 83 83 83 83 82 81 82 80 72 62 58 57 55 56 60 60 55 51 49 48 46 46 46
55 59 62 60 64 65 69 69 78 75 73 72 74 77 80 83 84 84 83 81 79 74 68 61 54 53 53 53 56 57 55 51 50 48 47 45 43 42
56 61 59 61 61 71 67 78 79 76 74 73 76 80 82 83 82 82 81 80 73 65 60 55 52 52 50 54 56 55 51 49 48 45 43 41 38 38
58 58 59 60 70 68 74 81 74 74 77 77 79 82 83 82 82 80 77 72 65 57 55 54 52 52 52 54 54 53 49 47 47 44 40 38 37 38
60 59 61 67 69 69 69 71 74 76 79 82 83 84 83 83 81 78 74 67 59 55 54 53 52 51 50 53 51 48 46 45 42 40 38 36 36 35
62 64 66 68 68 68 70 73 77 81 83 85 86 84 83 81 79 76 72 63 56 55 56 55 55 54 53 52 49 45 42 41 41 38 35 34 34 33
64 66 66 67 67 69 72 76 79 82 86 86 86 85 82 77 73 69 66 61 57 58 58 56 55 54 52 50 46 43 41 38 37 36 35 33 32 33
64 65 65 67 69 72 75 77 81 84 86 85 83 82 79 73 71 69 66 63 59 57 59 56 55 51 50 46 42 41 40 37 35 32 32 32 32 32
64 65 67 69 72 75 78 81 84 87 86 84 84 80 76 71 70 69 68 64 59 57 58 54 50 47 45 41 37 39 40 37 35 32 31 29 29 30
64 66 68 71 76 79 82 85 88 88 85 85 84 80 75 70 68 66 65 61 56 54 54 52 46 43 40 36 34 36 38 36 33 30 29 29 28 28
67 69 72 76 79 83 87 91 91 88 85 83 79 74 70 67 66 64 61 57 52 50 48 48 42 40 36 31 32 34 37 34 31 29 28 28 29 28
69 71 75 79 83 87 91 94 94 91 89 82 73 70 68 65 61 57 46 55 48 47 41 43 40 38 31 29 30 33 34 32 30 27 26 27 27 26
73 76 80 84 87 91 93 93 93 90 85 77 70 65 60 57 54 50 43 43 41 46 41 39 38 36 32 27 28 31 32 29 26 25 25 24 23 20
79 82 85 87 91 93 93 91 89 86 80 72 67 59 54 49 44 39 35 35 41 41 37 36 38 34 29 26 27 28 29 28 22 23 22 15 8 8
82 85 88 90 91 91 89 87 84 78 72 68 60 51 45 40 37 32 32 28 26 29 37 35 40 30 26 25 25 26 25 24 20 20 12 6 7 9
85 86 89 90 88 87 85 82 77 71 69 64 55 47 39 33 31 29 22 20 27 33 37 35 34 26 22 23 24 22 24 18 19 13 9 7 6 9
87 89 88 86 84 82 80 75 70 68 67 61 54 44 36 32 29 25 24 29 33 35 30 32 27 23 20 22 22 21 20 17 15 13 11 8 6 6
88 86 85 82 80 79 74 68 66 67 66 57 48 40 34 30 27 28 31 33 35 29 28 25 22 19 18 21 19 18 17 15 12 16 12 7 4 2
84 82 78 78 78 74 69 65 63 66 61 50 40 37 33 28 27 28 33 27 24 27 23 20 18 16 17 18 18 17 14 13 13 17 12 8 5 4
80 77 77 76 74 70 66 62 62 66 53 43 37 31 27 26 28 29 31 24 25 20 19 18 16 16 16 17 16 17 13 12 16 19 14 11 7 5
76 77 77 75 71 68 63 60 61 61 47 38 32 26 25 24 23 22 23 24 24 17 17 17 14 16 15 15 14 15 13 12 17 22 18 14 10 7
77 77 75 73 70 66 59 58 59 52 42 33 28 26 26 28 28 30 30 24 22 18 17 17 14 16 15 14 13 15 13 12 15 25 20 17 13 9
78 76 73 71 68 62 55 56 54 44 38 32 27 27 26 28 30 29 27 24 19 17 18 16 14 14 14 13 12 14 13 12 14 26 23 19 17 16

GFSNE_500_spd_045.txt.gz
Wind_Speed
44 47 48 47 56 58 59 59 59 60 63 69 69 75 76 75 75 76 79 81 83 82 81 80 79 76 68 64 58 57 55 53 54 55 55 55 49 48
47 45 48 51 56 59 60 61 61 62 65 69 67 68 73 76 78 80 83 84 84 81 78 76 71 63 58 57 54 54 54 54 53 54 54 50 46 45
45 44 53 46 61 60 61 62 64 64 64 65 67 70 73 76 81 83 86 85 83 81 77 71 61 56 56 55 56 55 55 54 53 54 51 45 45 42
47 49 51 55 59 60 63 64 65 66 67 67 69 72 76 80 84 87 88 86 84 80 74 66 56 56 57 56 56 57 55 53 53 52 47 44 42 38
51 46 55 59 60 62 64 64 64 67 70 71 72 75 78 83 87 89 88 86 83 77 71 63 55 57 57 56 56 54 53 51 51 47 44 43 39 37
54 56 60 62 63 63 63 64 66 68 72 76 78 78 83 86 91 89 86 83 77 73 67 58 54 55 56 56 56 53 49 49 47 41 41 41 39 36
57 58 61 62 64 64 64 66 68 71 75 79 81 86 88 89 88 85 81 76 73 68 64 58 54 54 54 54 54 50 48 47 42 38 38 38 37 35
59 58 61 64 63 64 65 68 72 75 78 82 86 90 89 90 86 82 75 72 71 66 63 57 55 54 52 53 51 48 45 44 39 36 36 35 34 33
58 60 63 64 65 65 67 70 72 77 82 86 89 90 91 88 86 79 70 70 69 64 59 51 53 53 53 51 49 45 43 40 37 35 35 34 33 31
60 64 67 68 68 69 70 71 75 80 83 88 91 92 91 88 81 75 71 69 65 60 52 52 52 49 48 46 43 42 39 37 35 34 34 33 31 29
65 69 71 72 74 76 76 77 79 81 86 90 91 91 90 85 76 72 66 63 58 50 45 48 50 47 44 41 39 39 36 34 33 33 31 31 28 26
69 72 75 77 78 80 82 84 85 87 91 93 91 88 85 77 69 66 62 57 53 50 34 46 47 48 48 44 39 36 34 33 32 31 30 27 25 24
72 73 76 79 81 83 84 87 90 93 94 93 89 84 76 70 63 60 55 50 46 42 36 37 39 48 51 44 34 33 32 30 31 28 27 23 22 21
79 74 77 81 83 86 89 91 93 93 93 88 83 77 71 65 62 55 47 41 37 32 29 33 40 44 45 36 33 29 29 29 27 26 22 20 17 11
82 79 80 84 86 88 90 92 91 89 87 83 77 71 66 62 62 51 39 32 30 28 31 37 42 37 33 37 31 25 25 27 25 21 18 16 11 9
80 82 85 86 88 90 91 89 87 84 81 77 71 66 62 61 59 46 33 30 28 25 24 25 26 29 33 32 24 22 23 23 23 17 16 11 11 9
82 84 85 87 90 91 88 86 82 79 75 71 68 62 59 61 51 39 29 26 25 23 26 25 26 30 31 24 20 19 20 20 18 15 13 12 10 8
82 84 86 90 92 90 88 83 80 77 71 68 64 58 57 54 41 31 28 24 19 28 29 27 30 27 23 19 18 18 19 19 15 14 12 13 12 6
83 86 88 90 89 88 83 80 78 72 68 64 59 53 54 44 33 25 24 26 25 28 30 27 26 21 17 18 18 16 16 16 13 13 15 14 12 9
86 88 89 89 86 82 81 79 75 69 65 59 53 51 48 35 28 24 23 23 24 28 24 22 21 18 17 16 16 15 14 14 12 12 18 15 13 9
90 88 86 86 83 82 79 76 70 64 59 53 49 48 41 30 26 24 21 26 28 26 21 22 18 17 16 14 15 14 13 13 12 12 20 18 14 10
91 88 86 84 82 79 75 72 65 60 54 49 46 43 36 28 25 25 27 27 22 22 22 20 16 17 15 14 14 13 11 12 12 13 19 20 17 13
88 86 85 82 80 76 71 66 60 55 51 46 45 39 32 27 26 29 29 26 23 22 21 18 17 18 14 13 13 12 11 10 12 13 17 24 20 17

GFSNE_500_spd_048.txt.gz
Wind_Speed
35 38 40 44 46 49 47 58 57 57 61 63 62 62 61 61 62 65 68 70 73 76 81 85 89 91 89 85 79 75 69 63 61 60 58 57 56 56
37 39 42 45 47 45 54 60 57 61 60 59 59 59 62 64 67 69 71 74 78 82 86 89 90 87 81 73 68 67 61 60 59 59 58 57 56 56
40 42 45 47 48 50 51 51 59 59 59 57 57 60 64 66 69 73 75 78 82 87 90 90 88 83 76 69 65 64 60 60 59 58 58 57 57 54
42 45 47 51 52 53 53 53 54 58 60 60 61 64 66 69 71 75 77 81 86 89 90 90 87 79 71 63 61 62 60 60 59 58 58 55 52 51
45 49 51 52 53 53 54 53 58 60 63 64 65 67 69 71 75 78 80 87 90 90 90 87 81 73 68 60 58 59 56 57 55 55 53 51 49 49
49 52 54 54 55 56 53 56 61 64 66 69 70 72 74 74 79 83 86 89 90 89 86 79 74 70 66 62 58 57 55 55 52 52 50 49 48 47
53 56 56 56 57 56 56 62 66 67 69 72 75 77 78 81 83 86 91 92 91 87 80 74 72 69 65 55 57 50 56 56 53 52 49 47 45 42
57 57 58 59 58 57 61 64 68 71 75 76 78 81 83 87 88 93 96 97 95 85 75 69 69 66 57 55 52 50 58 54 54 50 47 43 39 39
59 59 59 58 56 58 65 69 72 75 79 82 80 84 87 91 95 96 95 93 90 77 70 65 62 59 50 45 52 52 51 51 50 46 43 37 36 36
62 62 63 63 62 65 72 74 73 78 80 83 83 84 89 92 94 97 96 91 83 73 67 65 56 50 37 38 47 50 46 49 49 46 40 34 34 35
63 64 65 66 69 73 75 74 76 78 79 81 83 86 90 93 95 97 91 86 78 67 62 60 52 44 29 37 49 47 45 51 50 49 35 32 32 33
70 69 69 70 73 75 77 79 82 80 80 80 83 87 90 91 91 90 87 79 71 64 59 53 47 39 38 38 40 45 47 49 51 47 31 30 31 29
74 70 71 74 76 81 82 82 82 82 81 84 87 89 90 90 87 83 78 72 66 61 55 46 39 35 36 35 37 42 44 50 50 38 29 29 28 24
72 73 75 80 84 84 84 83 83 85 86 89 90 90 91 87 82 75 69 64 62 60 46 38 35 30 31 40 43 44 48 48 40 29 27 27 24 21
74 77 81 83 82 82 83 84 86 87 89 90 92 92 87 84 77 68 62 58 57 49 37 34 30 30 31 35 40 43 42 36 30 25 26 23 20 18
81 83 84 83 82 83 83 85 88 90 91 93 91 86 84 78 70 64 56 53 50 37 32 29 28 28 24 25 31 32 32 27 25 25 22 19 17 12
87 90 88 82 83 83 85 86 88 91 93 89 86 83 79 72 64 58 51 51 42 30 29 26 22 22 24 23 28 30 25 22 22 22 20 16 14 12
90 87 85 83 83 86 88 89 91 92 89 85 83 79 74 66 58 51 48 44 35 26 26 25 23 24 25 27 29 25 19 20 21 18 17 15 15 13
87 84 84 86 87 88 91 93 91 89 85 83 79 74 68 60 53 46 44 37 29 23 25 25 27 30 28 27 24 17 17 19 19 18 15 14 16 14
85 86 87 88 90 93 93 92 88 84 83 79 74 70 64 54 47 43 38 32 26 24 27 28 28 26 21 22 20 16 17 18 17 16 14 13 17 15
84 85 89 92 93 94 92 87 84 82 78 73 68 65 61 48 42 40 33 29 25 20 24 28 22 19 20 20 19 16 16 16 15 15 14 14 18 15
88 91 94 96 95 92 87 84 80 76 72 68 63 59 52 43 40 37 29 27 26 28 30 27 20 20 21 19 18 16 15 16 15 14 14 15 21 17
95 97 98 95 92 87 83 79 74 70 68 66 62 54 46 40 38 33 27 27 31 31 29 23 21 21 22 19 17 15 16 15 14 14 14 15 24 20

GFSNE_500_spd_054.txt.gz
Wind_Speed
37 39 39 39 40 39 40 40 39 39 42 45 49 52 53 55 57 57 56 61 64 63 66 68 71 73 75 78 79 82 87 91 93 92 90 86 76 70
37 38 39 41 40 40 41 40 40 42 46 49 51 54 56 57 57 57 58 62 63 69 70 71 75 76 78 80 82 85 88 92 93 92 84 76 69 68
38 39 41 42 42 43 41 40 42 45 48 51 52 54 56 58 59 61 63 66 69 71 71 75 78 80 80 81 86 88 90 90 91 88 78 65 68 66
40 42 42 44 45 44 41 42 46 50 52 54 56 57 58 60 62 63 66 70 73 73 77 77 80 82 81 86 87 90 90 89 88 81 69 66 64 61
41 42 43 46 45 45 45 47 49 54 57 60 61 64 64 64 64 66 68 71 73 77 79 80 82 82 85 88 89 91 90 89 85 73 66 62 61 53
40 44 46 47 47 48 49 51 54 57 60 62 65 68 67 66 65 66 67 71 73 77 80 81 81 83 87 90 91 92 91 87 78 67 62 60 59 43
45 47 48 50 51 51 53 55 58 60 63 66 68 71 68 68 68 69 71 74 76 81 81 82 83 88 90 90 93 98 96 86 72 64 59 59 51 41
48 49 51 53 54 56 57 60 60 63 67 70 71 75 70 70 74 77 78 81 84 83 83 83 86 91 92 95 99 101 91 77 66 60 57 54 43 43
50 53 55 56 57 58 60 61 64 68 70 72 75 76 74 76 78 79 83 85 86 86 88 86 90 92 95 99 99 94 78 69 60 56 52 44 40 44
55 57 57 57 59 61 63 66 68 72 73 78 82 78 77 79 82 85 86 88 88 90 91 91 93 93 98 97 92 80 71 62 55 48 40 37 41 37
56 57 58 60 61 64 68 70 73 75 80 83 77 78 81 84 86 87 89 90 88 88 89 95 94 97 98 89 79 71 63 56 48 35 33 32 28 32
59 60 61 62 64 67 70 73 76 79 78 75 79 83 85 85 87 88 89 88 89 87 90 95 96 96 94 77 70 65 55 48 34 29 30 28 29 36
62 63 63 66 69 72 74 77 78 74 78 82 84 85 85 85 86 87 86 87 88 89 91 96 93 87 79 72 64 55 47 37 30 26 28 32 32 35
64 65 68 71 73 75 77 75 78 81 83 85 86 86 86 86 85 84 84 86 89 90 91 92 89 78 71 66 57 48 38 29 25 19 26 34 37 42
68 70 72 74 78 78 79 82 84 87 86 86 87 87 86 83 83 84 85 87 89 91 90 87 79 70 66 58 49 40 29 25 25 25 21 23 27 28
72 74 77 79 82 84 85 89 91 90 89 88 86 84 82 83 83 85 86 89 90 87 82 80 72 66 61 51 42 32 26 20 19 20 20 24 27 23
79 79 81 86 86 87 90 92 93 91 88 84 83 83 83 84 85 87 89 91 89 83 72 69 68 62 53 44 36 25 21 18 20 21 23 24 21 15
80 80 84 88 90 93 95 94 91 87 85 84 84 84 85 86 88 90 91 90 86 75 68 64 59 54 45 39 31 26 23 21 23 24 21 19 18 16
79 83 87 89 91 93 92 88 86 85 83 84 86 86 89 90 91 91 90 85 76 70 64 59 54 44 39 34 29 26 25 23 25 22 17 17 18 16
85 87 88 89 89 88 86 85 85 85 87 88 90 91 93 93 94 90 84 76 68 62 58 54 49 39 35 32 27 28 29 26 25 20 17 17 16 15
84 86 87 87 87 86 86 87 88 90 92 93 95 97 99 97 91 83 74 69 64 58 52 48 43 35 31 28 27 28 26 23 23 19 17 15 15 15
85 85 84 85 87 89 91 92 93 95 97 100 100 96 91 86 80 73 70 65 61 56 49 42 36 32 28 25 24 19 20 20 20 18 16 15 15 15
85 88 90 91 93 94 96 98 100 101 99 97 93 88 83 78 75 71 67 63 55 52 43 34 31 30 27 25 21 22 19 18 18 17 15 16 15 15

GFSNE_500_spd_060.txt.gz
Wind_Speed
37 39 38 39 38 44 44 45 48 46 50 45 45 48 48 48 49 49 48 48 50 53 57 59 62 62 64 66 66 67 68 69 70 72 74 75 76 74
38 41 42 39 44 40 42 45 42 38 53 49 47 49 51 50 51 52 52 52 56 57 60 64 65 66 67 72 68 67 68 69 73 76 77 77 75 76
36 39 44 47 46 44 45 45 54 55 56 55 48 51 52 53 54 55 58 58 60 61 64 67 68 69 71 75 70 68 71 75 78 79 80 79 78 79
45 46 46 47 48 51 56 55 53 51 56 52 48 51 54 55 59 59 60 60 62 65 66 69 71 72 75 75 70 73 77 80 82 82 82 81 81 83
40 46 53 54 55 55 58 58 53 56 48 48 52 55 59 61 62 62 63 63 66 67 70 71 73 76 79 76 77 80 83 83 83 83 83 82 83 85
43 46 48 40 47 51 45 48 53 50 53 52 57 61 62 64 65 65 65 67 68 70 71 73 76 79 77 80 84 85 86 85 84 83 82 82 84 87
45 47 44 46 46 48 54 47 47 52 56 60 62 63 64 65 66 67 68 69 71 72 73 76 78 79 81 84 86 87 87 85 84 83 83 84 86 90
48 50 45 49 53 47 50 55 50 41 63 62 64 65 62 70 70 70 70 71 72 75 76 79 81 81 85 87 86 88 88 86 84 83 84 86 89 93
48 48 51 41 48 49 51 54 55 57 64 63 62 60 73 73 74 72 72 73 75 77 79 79 82 85 88 88 89 89 86 85 85 84 86 89 92 93
46 48 51 49 52 54 54 56 56 59 54 65 70 74 76 75 75 74 75 76 77 81 85 87 87 88 90 91 90 86 85 86 85 86 87 90 91 83
47 48 50 53 54 54 55 52 55 64 65 68 71 77 77 76 77 77 78 78 83 87 90 89 91 91 91 90 86 83 83 84 86 87 89 91 82 69
52 53 54 55 58 58 54 60 65 73 66 79 84 82 79 80 80 80 83 85 89 90 91 91 93 93 91 86 82 81 84 86 86 87 89 80 68 59
56 57 58 59 60 64 65 64 68 73 74 83 82 80 82 81 84 87 89 89 91 95 96 95 93 91 90 85 80 81 84 85 86 87 76 65 58 50
57 59 59 57 59 72 61 68 70 75 81 81 80 83 84 88 88 93 93 92 96 96 95 95 91 88 87 83 80 81 82 85 86 76 65 55 49 42
59 57 62 54 62 74 76 82 86 83 78 80 84 88 91 92 90 97 95 95 97 95 93 89 88 86 83 82 81 81 83 82 72 62 55 49 42 38
59 60 54 67 74 75 79 80 79 80 84 88 89 89 91 92 96 97 97 93 91 90 89 88 86 85 83 84 86 84 81 71 59 52 46 40 35 32
61 66 75 76 75 75 79 83 84 86 89 89 89 95 94 94 93 91 90 90 90 89 88 87 87 88 89 90 86 79 70 60 52 46 40 35 29 29
73 75 75 76 81 83 82 85 88 89 88 90 92 94 95 92 90 92 91 91 91 90 90 91 92 92 91 85 78 66 57 51 46 41 35 31 29 29
70 73 75 79 83 88 85 85 87 89 92 94 95 93 92 93 94 94 94 95 94 94 93 93 92 90 86 77 67 60 50 46 41 36 30 30 29 28
68 71 73 76 79 83 86 89 91 94 96 94 93 93 94 96 98 99 99 99 98 96 94 90 86 82 75 67 59 54 49 41 34 31 29 29 27 26
74 76 79 83 87 90 91 94 95 95 95 97 99 101 103 104 104 105 103 101 96 91 86 81 78 74 69 60 49 44 39 34 31 27 25 27 27 26
82 85 87 88 89 91 93 95 97 99 102 104 106 107 108 108 105 100 95 90 86 82 78 73 67 61 55 49 40 35 32 31 28 28 29 29 26 21
82 84 87 89 91 93 96 100 103 106 108 109 108 106 102 97 92 89 86 82 79 75 70 64 57 52 47 39 32 29 28 29 29 29 32 26 22 21

GFSNE_500_spd_066.txt.gz
Wind_Speed
24 25 25 26 28 29 31 35 37 38 38 37 38 38 45 48 51 50 49 50 51 56 55 51 46 47 49 51 51 53 56 59 62 64 66 68 68 69
22 24 27 28 32 34 36 37 38 41 41 42 46 45 47 52 56 56 57 55 52 57 58 51 46 48 52 53 53 55 55 61 62 65 68 70 70 71
22 24 26 28 29 30 31 34 36 40 42 42 46 51 47 54 55 51 53 52 58 56 55 56 53 50 53 54 58 55 59 64 63 66 69 71 71 71
27 29 30 32 33 35 36 38 43 44 47 46 50 50 53 53 53 56 55 53 56 60 63 57 52 55 54 60 62 57 66 65 66 68 69 71 72 77
28 33 37 39 41 40 42 44 44 45 50 52 50 53 54 55 59 55 55 55 57 59 62 63 59 60 55 61 59 60 65 67 65 71 77 75 75 80
32 32 35 39 40 41 45 46 47 49 51 51 54 55 53 50 54 52 52 53 48 53 60 62 63 62 57 62 65 69 75 70 74 75 72 76 80 84
32 33 36 39 42 44 47 49 49 50 50 50 55 56 54 56 57 52 50 53 55 58 60 65 66 59 59 68 69 75 77 78 79 79 81 84 84 85
39 38 40 43 45 48 50 51 53 55 53 57 59 54 54 53 54 55 54 57 61 60 62 65 75 75 63 67 77 83 84 79 80 86 88 86 86 89
49 50 48 46 46 47 51 54 55 56 57 59 62 56 57 56 58 62 58 59 66 62 69 74 72 65 68 75 84 89 84 84 86 90 90 86 89 90
53 51 49 49 50 49 49 51 55 57 56 52 62 55 61 61 64 64 58 67 67 72 70 70 64 70 79 85 88 88 88 89 89 89 88 89 90 88
47 47 49 51 54 54 54 56 58 59 59 60 61 63 65 64 65 71 67 68 74 76 84 76 71 78 78 84 89 91 92 90 87 89 90 91 90 90
53 53 54 54 50 55 59 61 63 65 66 67 67 64 66 71 73 74 80 74 72 83 77 74 80 86 88 92 92 94 91 89 89 93 93 92 91 92
58 58 58 59 60 59 61 62 64 66 67 69 68 69 67 70 77 77 76 79 84 87 84 85 90 92 93 97 94 92 93 93 94 95 94 92 91 93
68 64 61 61 63 65 70 68 64 64 67 65 65 71 72 75 77 84 86 87 84 82 83 86 85 86 92 93 90 91 94 97 97 95 94 93 93 91
52 56 90 65 69 82 76 71 66 64 66 70 73 76 77 76 79 84 81 75 82 82 82 85 87 90 91 92 93 95 97 97 97 97 95 94 92 87
77 77 75 78 78 77 78 67 66 70 73 73 79 82 83 80 79 80 82 86 89 90 90 94 97 97 97 99 100 98 99 99 100 99 96 90 85 78
71 72 83 80 82 84 79 74 74 71 73 77 80 80 80 81 81 82 84 88 91 92 93 96 100 100 99 99 100 101 102 103 101 96 91 85 74 66
77 83 77 71 70 67 63 64 67 69 73 72 73 76 79 81 83 85 88 91 93 95 97 99 100 99 99 100 104 104 102 98 95 87 78 72 62 56
77 67 65 64 64 65 65 67 70 71 74 79 83 85 88 89 88 89 90 91 93 94 96 99 102 104 105 106 105 103 100 90 82 73 67 62 53 47
59 61 62 64 67 69 73 76 78 81 81 83 84 85 86 88 89 91 93 95 97 100 104 107 109 110 110 107 104 91 84 80 73 63 56 50 44 40
60 62 65 69 73 77 80 80 81 82 83 85 86 86 88 90 93 96 99 103 105 107 108 108 107 104 100 96 90 82 75 69 63 55 47 38 36 34
68 69 72 74 76 77 77 79 80 81 83 85 88 91 94 98 102 104 105 105 104 103 101 99 96 93 90 87 83 76 67 58 53 43 37 33 33 31
70 70 71 74 75 77 80 81 84 87 89 93 96 98 101 101 98 97 95 96 95 93 92 89 87 86 84 80 74 65 57 50 45 35 30 30 30 27